{"data":{"norad_id":59797,"intl_designator":"2024-093R","name":"STARLINK-31907","alt_names":[],"object_type":"PAYLOAD","status":"ACTIVE","operator":null,"country":"US","launch_date":"2024-05-18","launch_site_code":"AFETR","launch_vehicle":null,"mission":null,"orbit_class":"UNKNOWN","rcs_meters":null,"size_class":null,"mass_kg":null,"dimensions":null,"purposes":["comms"],"wikipedia_slug":null,"has_3d_model":false,"image_url":null,"decayed_at":null,"tle_current":{"epoch":"2026-09-21T02:54:20.279520Z","epoch_age_seconds":120739,"freshness":"FRESH","line1":"1 59797U 24093R   26264.12106805  .00000655  00000+0  33326-4 0  9994","line2":"2 59797  43.0027 185.2425 0001274 269.3734  90.6972 15.27581047132582","mean_motion":15.27581047,"eccentricity":0.0001274,"inclination_deg":43.0027,"raan_deg":185.2425,"arg_perigee_deg":269.3734,"mean_anomaly_deg":90.6972,"bstar":3.3326e-5,"rev_number":13258,"period_min":94.266684103472,"perigee_km":482.17184623756,"apogee_km":483.92007565601,"semimajor_km":6861.1829609468,"source":"CELESTRAK","updated_at":"2026-09-22T09:00:49.073894Z"}}}